sat.trackr.live / text

‹ back to catalog

UNKNOWN

NORAD 85419

UNKNOWN UNKNOWN UNKNOWN

§ Identity

Operator
Country
Launch date
Launch site
Launch vehicle
Mass (kg)
RCS (m²)

External: N2YO · Heavens-Above

§ Orbital elements

Epoch: 2026-06-09T12:32:30.573312Z

Period
92.55 min
Inclination
55.0017°
Eccentricity
0.0008125
Mean motion
15.55832235 rev/d
Perigee alt
394.2 km
Apogee alt
405.2 km
Semi-major
6,777.9 km
B*
1.0755e-3
RAAN
340.4318°
Arg perigee
260.8072°
Mean anomaly
99.2045°
Rev number
1

§ Raw data

UNKNOWN1 85419U          26160.52257608  .00075903  00000+0  10755-2 0  99902 85419  55.0017 340.4318 0008125 260.8072  99.2045 15.55832235    10

JSON: /api/v1/satellites/85419 · /tle

For live sub-satellite position, see the globe view (requires WebGL).

§ Visibility from observer

Set your observer location to see the next 7 days of passes ≥ 10°. The values pass through the URL so the page stays shareable.

No JS? Fill the form by hand. The geolocation button needs JavaScript.